BREEZE-M DEB, 38569

Orbit data source: Space-Track

BREEZE-M DEB, 38569 is space debris in HEO originally from a launch on Fri, 14 Mar 2008 UTC launched from the Tyuratam Missile And Space Complex (TTMTR). Debris objects in space refer to the collection of defunct objects orbiting the Earth. Examples of debris include non-operational satellites, rocket bodies, and fragments generated from explosions, collisions, or faulty payload assembly.

Loading next visibility...
Identifier
38569, 2008-011Q
Orbit
HEO
Country
Flag of CISCIS
Related business
Manufacturer
Unknown
Mission
Spacecraft
Bus & Motor
Unknown
Mass
Unknown
Launch date (UTC)
2008-03-14 (18 years ago)
Launch vehicle
Unknown
Launch site
Tyuratam Missile And Space Complex (TTMTR)
Object type
Payload
Rocket body
Debris
Shape & HBR
Unknown shape, 0.3 m
Radar Cross Section
Medium (>0.1 m² and <1 m²)

Expand to show TLE details & history
Last TLE update: 5 days ago

TLE from 5 days ago
0 BREEZE-M DEB
1 38569U 08011Q   26168.24471278  .00000071  00000-0  00000-0 0  9997
2 38569  48.8933 173.1652 6205817  67.2310 345.1124  3.02984309 22193
Epoch: 2026-06-17T05:52Z
TLE epoch observation values (Epoch: 2026-06-17T05:52:23.184Z)
Latitude
0.00008°
Longitude
179.53495°
Altitude
3,615.824 km
Speed
7.747 km/s
True Right ascension
11h 32m 32s
True Declination
0° 00' 00"
Sunlit
Object was in daylight at epoch
Visualization orbit readout
Latitude
Unknown
Longitude
Unknown
Altitude
Unknown
Speed
Unknown
Apparent Right ascension
Unknown
Apparent Declination
Unknown
Sunlit
N/A
Visualization observer readout
Local Sidereal Time
03:26:36
Azimuth
Unknown
Elevation
Unknown
Doppler factor
Unknown
Orbital elements
Apogee altitude
26,316.316 km
Perigee altitude
1,276.444 km
Semi-major axis
20,174.517 km
Eccentricity
0.62058
Inclination
48.8933°
RAAN
173.1652°
Arg. of periapsis
67.231°
True anomaly
292.91284°
Mean anomaly
345.1124°
Eccentric anomaly
324.42831°
Mean motion
0.75742 °/min
Orbital period
475.3 mins
BSTAR
0
Loading maneuver chart data...
Computing Atmospheric mass density...
Loading historical data...
Loading historical data...
Loading historical data...
Loading historical data...
Loading historical data...
Loading historical data...
Loading historical data...

Documentation

Showing up to 5 results
|